Regional Weather Roundup
Issued by NWS

Home | Current Version | Previous Version | Graphics & Text | Print | Product List | Glossary On
Versions: 1 2 3 4 5 6 7 8 9 10 11 12 13 14 15 16 17 18 19 20 21 22 23 24 25 26 27 28 29 30 31 32 33 34 35 36 37 38 39 40 41 42 43 44 45 46 47 48 49 50
000
ASUS43 KOAX 161810
RWRNE

WEATHER ROUNDUP FOR NEBRASKA
NATIONAL WEATHER SERVICE OMAHA NE
1200 PM CST MON JAN 16 2017

NOTES: SATELLITE DATA IS BEING USED TO AUGMENT CLOUD COVER ABOVE
       12000 FEET.
       "FAIR" INDICATES FEW OR NO CLOUDS BELOW 12,000 FEET WITH NO
       SIGNIFICANT WEATHER AND/OR OBSTRUCTIONS TO VISIBILITY.

  * THESE STATIONS DO NOT REPORT WEATHER SUCH AS RAIN...SNOW OR FOG.

NEZ001>004-019>022-054>056-161900-
NEBRASKA PANHANDLE

CITY           SKY/WX    TMP DP  RH WIND       PRES   REMARKS
SCOTTSBLUFF    CLOUDY    38  19  46 NW10      30.10S WCI  31
6HR MIN TEMP:  34; 6HR MAX TEMP:  39;

ALLIANCE       CLOUDY    34  16  47 N18       30.06S WCI  23
6HR MIN TEMP:  30; 6HR MAX TEMP:  34;

CHADRON        CLOUDY    29  16  58 VRB7      30.13F WCI  22
6HR MIN TEMP:  22; 6HR MAX TEMP:  29;

KIMBALL        CLOUDY    34  24  66 N17       30.07R WCI  23
SIDNEY         CLOUDY    33  21  61 N18       30.05R WCI  22
6HR MIN TEMP:  29; 6HR MAX TEMP:  33; 6HR PCP:  0.01;

$$

NEZ057>060-069>072-079>082-161900-
SOUTHWEST NEBRASKA

CITY           SKY/WX    TMP DP  RH WIND       PRES   REMARKS
NORTH PLATTE   LGT RAIN  34  31  88 N10       29.98S WCI  26
6HR MIN TEMP:  32; 6HR MAX TEMP:  34; 6HR PCP:  0.06;

IMPERIAL       LGT RAIN  34  31  88 N17       29.97S WCI  23
6HR MIN TEMP:  32; 6HR MAX TEMP:  34; 6HR PCP:  0.15;

LEXINGTON      RAIN      33  32  95 N7        29.95F WCI  27
MCCOOK         CLOUDY    33  33 100 N8        29.95F FOG     WCI  26
6HR MIN TEMP:  32; 6HR MAX TEMP:  33; 6HR PCP:  0.35;

OGALLALA       CLOUDY    36  31  83 N9        30.01S WCI  29
$$

NEZ005>010-023>029-035>040-094-161900-
NORTH CENTRAL NEBRASKA

CITY           SKY/WX    TMP DP  RH WIND       PRES   REMARKS
VALENTINE      CLOUDY    32  17  54 NW13      30.04F WCI  22
6HR MIN TEMP:  27; 6HR MAX TEMP:  33;

AINSWORTH      CLOUDY    31  26  80 NW8       30.02F WCI  24
BROKEN BOW     LGT RAIN  34  32  92 N18       29.96S FOG     WCI  23
6HR MIN TEMP:  32; 6HR MAX TEMP:  34; 6HR PCP:  0.06;

O`NEILL        MIX PCPN  29  27  92 N13       30.01F WCI  19
ORD            LGT RAIN  33  30  88 N13       29.97F FOG     WCI  24
6HR MIN TEMP:  32; 6HR MAX TEMP:  33; 6HR PCP:  0.12;

THEDFORD       CLOUDY    33  30  88 N8        30.01F WCI  26
$$

NEZ041-046>049-061>064-073>077-083>087-161900-
SOUTH CENTRAL NEBRASKA

CITY           SKY/WX    TMP DP  RH WIND       PRES   REMARKS
GRAND ISLAND     N/A    N/A N/A N/A MISG      29.93F
AURORA         MIX PCPN  32  32  99 N5        29.91F WCI  27
HASTINGS       FRZ RAIN  32  30  92 N16       29.91F FOG     WCI  21
6HR MIN TEMP:  31; 6HR MAX TEMP:  32; 6HR PCP:  0.45;

HEBRON         CLOUDY    32  32 100 N3        29.89F FOG
HOLDREGE       MIX PCPN  32  31  96 N5        29.92F WCI  28
KEARNEY *      CLOUDY    32  28  86 N8        29.93F WCI  25
YORK           RAIN      32  32 100 CALM      29.91F
$$

NEZ011>018-030>034-042>045-161900-
NORTHEAST NEBRASKA

CITY           SKY/WX    TMP DP  RH WIND       PRES   REMARKS
NORFOLK        FRZ RAIN  31  29  92 N12       29.98F FOG     WCI  22
6HR MIN TEMP:  31; 6HR MAX TEMP:  31; 6HR PCP:  0.13;

ALBION         LGT SNOW  32  31  94 N6        29.98F WCI  27
BLAIR          MIX PCPN  33  32  98 NE6       29.92F WCI  27
FREMONT        LGT SNOW  32  32 100 N3        29.94F
TEKAMAH        RAIN      33  31  92 N10       29.96F FOG     WCI  25
6HR MIN TEMP:  32; 6HR MAX TEMP:  33; 6HR PCP:  0.21;

WAYNE          MIX PCPN  32  32  99 N8        30.00F WCI  25
$$

NEZ050>053-065>068-078-088>093-161900-
SOUTHEAST NEBRASKA

CITY           SKY/WX    TMP DP  RH WIND       PRES   REMARKS
LINCOLN        LGT RAIN  33  32  96 NE10      29.93F FOG     WCI  25
6HR MIN TEMP:  32; 6HR MAX TEMP:  33; 6HR PCP:  0.51;

OMAHA EPPLEY   LGT RAIN  33  30  88 N6        29.94F VSB 1   WCI  28
6HR MIN TEMP:  33; 6HR MAX TEMP:  34; 6HR PCP:  0.31;

BEATRICE       CLOUDY    33  33  99 NE5       29.89F FOG     WCI  28
FALLS CITY     CLOUDY    34  33  96 E7        29.88F WCI  28
6HR MIN TEMP:  33; 6HR MAX TEMP:  34; 6HR PCP:  0.39;

NEBRASKA CITY  FOG       32  32 100 NE5       29.89F VSB 1   WCI  28
PLATTSMOUTH    MIX PCPN  33  31  94 NE5       29.91F WCI  28
$$

NEZ044-045-051>053-067-161900-
OMAHA AREA

CITY           SKY/WX    TMP DP  RH WIND       PRES   REMARKS
OMAHA EPPLEY   LGT RAIN  33  30  88 N6        29.94F VSB 1   WCI  28
6HR MIN TEMP:  33; 6HR MAX TEMP:  34; 6HR PCP:  0.31;

BLAIR          MIX PCPN  33  32  98 NE6       29.92F WCI  27
FREMONT        LGT SNOW  32  32 100 N3        29.94F
MILLARD        CLOUDY    35  33  94 CALM      29.93F FOG
OFFUTT AFB     LGT RAIN  33  33 100 NE7       29.92F FOG     WCI  27
PLATTSMOUTH    MIX PCPN  33  31  94 NE5       29.91F WCI  28
WAHOO          MIX PCPN  32  32  98 N9        29.93F WCI  24
$$



USA.gov is the U.S. government's official web portal to all federal, state and local government web resources and services.